Skip Page Navigation
NASA JPL Caltech
NASA Logo - Jet Propulsion Laboratory + View the NASA Portal
+ Center for Near-Earth Object Studies
JPL Home Earth Solar System Stars & Galaxies Technology
JPL Solar System Dynamics
BODIES ORBITS EPHEMERIDES TOOLS PHYSICAL DATA DISCOVERY FAQ SITE MAP
IMPORTANT: The SSD Announcement email list is now available. Major changes are coming in the near future, including possible hostname and/or URL changes. To be notified of such changes, subscribe to this email list.

Please visit this page for more details.


JPL Small-Body Database Browser
Search: [ help ]  
393383 (2000 CO132)
Classification: Main-belt Asteroid          SPK-ID: 2393383
Ephemeris | Orbit Diagram | Orbital Elements | Mission Design | Physical Parameters | Discovery Circumstances ]

[ show orbit diagram ]
Orbital Elements at Epoch 2459000.5 (2020-May-31.0) TDB
Reference: JPL 11 (heliocentric ecliptic J2000)
 Element Value Uncertainty (1-sigma)   Units 
e .03107658002428371 8.3142e-08  
a 2.679119901872358 3.5183e-08 au
q 2.595862017847171 2.2721e-07 au
i 5.759991044937035 8.2612e-06 deg
node 134.9020219637053 0.00010324 deg
peri 290.8575455569987 0.00018904 deg
M 292.3444691828444 0.00016197 deg
tp 2459301.514528752581
(2021-Mar-28.01452875)
0.00072255 TDB
period 1601.720199990666
4.39
3.1552e-05
8.638e-08
d
yr
n .224758356673093 4.4274e-09 deg/d
Q 2.762377785897546 3.6277e-08 au
  Orbit Determination Parameters
   # obs. used (total)      113  
   data-arc span      6652 days (18.21 yr)  
   first obs. used      2000-01-26  
   last obs. used      2018-04-13  
   planetary ephem.      DE431  
   SB-pert. ephem.      SB431-N16  
   condition code      0  
   norm. resid. RMS      .5433  
   source      ORB  
   producer      Otto Matic  
   solution date      2019-Jul-13 13:41:46  

Additional Information
 Earth MOID = 1.61652 au 
 Jupiter MOID = 2.3197 au 
 T_jup = 3.369 
[ show covariance matrix ]

Ephemeris | Orbit Diagram | Orbital Elements | Mission Design | Physical Parameters | Discovery Circumstances ]

Physical Parameter Table
Parameter Symbol Value Units Sigma Reference Notes
absolute magnitude H 17.1   n/a MPO437611  

393383 (2000 CO132)          Discovered 2000-Jan-26 by Spacewatch at Kitt Peak
Reference: Last Updated: 2014-05-15

Alternate Designations
 2000 CO132 = 2013 AT12 
Ephemeris | Orbit Diagram | Orbital Elements | Mission Design | Physical Parameters | Discovery Circumstances ]
ABOUT SSD CREDITS/AWARDS PRIVACY/COPYRIGHT GLOSSARY LINKS
FirstGov 2020-Apr-07 14:51 UT
(server date/time)  
NASA Home Page
Site Manager:   Ryan S. Park
Webmaster  Alan B. Chamberlin